START_TIME,STEP,MOV.,H8,t_acc.,H43,t_acc.,M25,t_acc.,H9,t_acc.
1979-07-21 03:00:29.230 ,1,0,0.,12.0,0.,12.0,0.,12.0,0.,12.0
1979-07-21 03:00:41.230 ,1,0,0.,12.0,0.,12.0,0.,12.0,0.,12.0
1979-07-21 03:00:53.230 ,2,0,0.,12.0,0.,12.0,0.,12.0,0.,12.0
1979-07-21 03:01:05.230 ,2,0,0.,12.0,0.,12.0,0.,12.0,0.,12.0
1979-07-21 03:01:17.230 ,2,0,0.,12.0,0.,12.0,0.,12.0,0.,12.0
1979-07-21 03:01:29.230 ,2,0,0.,12.0,0.,12.0,0.,12.0,0.,12.0
1979-07-21 03:01:41.230 ,3,0,0.,12.0,0.,12.0,0.,12.0,0.,12.0
1979-07-21 03:01:53.230 ,3,0,0.,12.0,0.,12.0,0.,12.0,0.,12.0
1979-07-21 03:02:05.230 ,3,0,1.,12.0,0.,12.0,0.,12.0,0.,12.0
1979-07-21 03:02:17.230 ,3,0,0.,12.0,0.,12.0,0.,12.0,0.,12.0
1979-07-21 03:02:29.230 ,4,0,0.,12.0,0.,12.0,0.,12.0,0.,12.0
1979-07-21 03:02:41.230 ,4,0,0.,12.0,0.,12.0,0.,12.0,0.,12.0
1979-07-21 03:02:53.230 ,4,0,0.,12.0,0.,12.0,0.,12.0,0.,12.0
1979-07-21 03:03:05.230 ,4,0,0.,12.0,0.,12.0,0.,12.0,0.,12.0
1979-07-21 03:03:17.230 ,5,0,0.,12.0,0.,12.0,0.,12.0,0.,12.0
1979-07-21 03:03:29.230 ,5,0,0.,12.0,0.,12.0,0.,12.0,0.,12.0
1979-07-21 03:03:41.230 ,5,0,0.,12.0,0.,12.0,0.,12.0,0.,12.0
1979-07-21 03:03:53.230 ,5,0,0.,12.0,0.,12.0,0.,12.0,0.,12.0
1979-07-21 03:04:05.230 ,6,0,0.,12.0,0.,12.0,0.,12.0,0.,12.0
1979-07-21 03:04:17.230 ,6,0,0.,12.0,0.,12.0,0.,12.0,0.,12.0
1979-07-21 03:04:29.230 ,6,0,0.,12.0,0.,12.0,0.,12.0,0.,12.0
1979-07-21 03:04:41.230 ,6,0,0.,12.0,0.,12.0,0.,12.0,0.,12.0
1979-07-21 03:04:53.230 ,7,0,0.,12.0,0.,12.0,0.,12.0,0.,12.0
1979-07-21 03:05:05.230 ,7,0,0.,12.0,0.,12.0,0.,12.0,0.,12.0
1979-07-21 03:05:17.230 ,7,0,0.,12.0,0.,12.0,0.,12.0,0.,12.0
1979-07-21 03:05:29.230 ,7,0,0.,12.0,0.,12.0,0.,12.0,0.,12.0
1979-07-21 03:05:41.230 ,7,0,0.,12.0,0.,12.0,0.,12.0,0.,12.0
1979-07-21 03:05:53.230 ,7,0,0.,12.0,0.,12.0,0.,12.0,0.,12.0
1979-07-21 03:06:05.230 ,7,0,0.,12.0,0.,12.0,0.,12.0,0.,12.0
1979-07-21 03:06:17.230 ,7,0,0.,12.0,0.,12.0,0.,12.0,0.,12.0
1979-07-21 03:06:29.230 ,6,0,0.,12.0,0.,12.0,0.,12.0,0.,12.0
1979-07-21 03:06:41.230 ,6,0,0.,12.0,0.,12.0,0.,12.0,0.,12.0
1979-07-21 03:06:53.230 ,6,0,0.,12.0,0.,12.0,0.,12.0,0.,12.0
1979-07-21 03:07:05.230 ,6,0,0.,12.0,0.,12.0,0.,12.0,0.,12.0
1979-07-21 03:07:17.230 ,5,0,0.,12.0,0.,12.0,0.,12.0,0.,12.0
1979-07-21 03:07:29.230 ,5,0,0.,12.0,0.,12.0,0.,12.0,0.,12.0
1979-07-21 03:07:41.230 ,5,0,0.,12.0,0.,12.0,0.,12.0,0.,12.0
1979-07-21 03:07:53.230 ,5,0,0.,12.0,0.,12.0,0.,12.0,0.,12.0
1979-07-21 03:08:05.230 ,4,0,0.,12.0,0.,12.0,0.,12.0,0.,12.0
1979-07-21 03:08:17.230 ,4,0,0.,12.0,0.,12.0,0.,12.0,0.,12.0
1979-07-21 03:08:29.230 ,4,0,0.,12.0,0.,12.0,0.,12.0,0.,12.0
1979-07-21 03:08:41.230 ,4,0,0.,12.0,0.,12.0,0.,12.0,0.,12.0
1979-07-21 03:08:53.230 ,3,0,0.,12.0,0.,12.0,0.,12.0,0.,12.0
1979-07-21 03:09:05.230 ,3,0,0.,12.0,0.,12.0,0.,12.0,0.,12.0
1979-07-21 03:09:17.230 ,3,0,0.,12.0,0.,12.0,0.,12.0,0.,12.0
1979-07-21 03:09:29.230 ,3,0,0.,12.0,0.,12.0,0.,12.0,0.,12.0
1979-07-21 03:09:41.230 ,2,0,1.,12.0,0.,12.0,0.,12.0,0.,12.0
1979-07-21 03:09:53.230 ,2,0,0.,12.0,0.,12.0,0.,12.0,0.,12.0
1979-07-21 03:10:05.230 ,2,0,0.,12.0,0.,12.0,0.,12.0,0.,12.0
1979-07-21 03:10:17.230 ,2,0,0.,12.0,0.,12.0,0.,12.0,0.,12.0
1979-07-21 03:10:29.230 ,1,0,0.,12.0,0.,12.0,0.,12.0,0.,12.0
1979-07-21 03:10:41.230 ,1,0,0.,12.0,0.,12.0,0.,12.0,0.,12.0
1979-07-21 03:10:53.230 ,1,0,0.,12.0,0.,12.0,0.,12.0,0.,12.0
1979-07-21 03:11:05.230 ,1,0,0.,12.0,0.,12.0,0.,12.0,0.,12.0
1979-07-21 03:11:17.230 ,0,0,0.,12.0,0.,12.0,0.,12.0,0.,12.0
1979-07-21 03:11:29.230 ,0,0,0.,12.0,0.,12.0,0.,12.0,0.,12.0
1979-07-21 03:11:41.230 ,0,0,0.,12.0,0.,12.0,0.,12.0,0.,12.0
1979-07-21 03:11:53.230 ,0,0,0.,12.0,0.,12.0,0.,12.0,0.,12.0
1979-07-21 03:12:05.230 ,0,0,0.,12.0,0.,12.0,0.,12.0,0.,12.0
1979-07-21 03:12:17.230 ,0,0,0.,12.0,0.,12.0,0.,12.0,0.,12.0
1979-07-21 03:12:29.230 ,0,0,0.,12.0,0.,12.0,0.,12.0,0.,12.0
1979-07-21 03:12:41.230 ,0,0,0.,12.0,0.,12.0,0.,12.0,0.,12.0
1979-07-21 03:12:53.230 ,1,0,0.,12.0,0.,12.0,0.,12.0,0.,12.0
1979-07-21 03:13:05.230 ,1,0,0.,12.0,0.,12.0,0.,12.0,0.,12.0
1979-07-21 03:13:17.230 ,1,0,0.,12.0,0.,12.0,0.,12.0,0.,12.0
1979-07-21 03:13:29.230 ,1,0,0.,12.0,0.,12.0,0.,12.0,0.,12.0
1979-07-21 03:13:41.230 ,2,0,0.,12.0,0.,12.0,0.,12.0,0.,12.0
1979-07-21 03:13:53.230 ,2,0,0.,12.0,0.,12.0,0.,12.0,0.,12.0
1979-07-21 03:14:05.230 ,2,0,0.,12.0,0.,12.0,0.,12.0,0.,12.0
1979-07-21 03:14:17.230 ,2,0,0.,12.0,0.,12.0,0.,12.0,0.,12.0
1979-07-21 03:14:29.230 ,3,0,0.,12.0,0.,12.0,0.,12.0,0.,12.0
1979-07-21 03:14:41.230 ,3,0,0.,12.0,0.,12.0,0.,12.0,0.,12.0
1979-07-21 03:14:53.230 ,3,0,0.,12.0,0.,12.0,0.,12.0,0.,12.0
1979-07-21 03:15:05.230 ,3,0,0.,12.0,0.,12.0,0.,12.0,0.,12.0
1979-07-21 03:15:17.230 ,4,0,0.,12.0,0.,12.0,0.,12.0,0.,12.0
1979-07-21 03:15:29.230 ,4,0,0.,12.0,0.,12.0,0.,12.0,0.,12.0
1979-07-21 03:15:41.230 ,4,0,0.,12.0,0.,12.0,0.,12.0,0.,12.0
1979-07-21 03:15:53.230 ,4,0,0.,12.0,0.,12.0,0.,12.0,0.,12.0
1979-07-21 03:16:05.230 ,5,0,0.,12.0,0.,12.0,0.,12.0,0.,12.0
1979-07-21 03:16:17.230 ,5,0,0.,12.0,0.,12.0,0.,12.0,0.,12.0
1979-07-21 03:16:29.230 ,5,0,0.,12.0,0.,12.0,0.,12.0,0.,12.0
1979-07-21 03:16:41.230 ,5,0,0.,12.0,0.,12.0,0.,12.0,0.,12.0
1979-07-21 03:16:53.230 ,6,0,0.,12.0,0.,12.0,0.,12.0,0.,12.0
1979-07-21 03:17:05.230 ,6,0,0.,12.0,0.,12.0,0.,12.0,0.,12.0
1979-07-21 03:17:17.230 ,6,0,0.,12.0,0.,12.0,0.,12.0,0.,12.0
1979-07-21 03:17:29.230 ,6,0,0.,12.0,0.,12.0,0.,12.0,0.,12.0
1979-07-21 03:17:41.230 ,7,0,0.,12.0,0.,12.0,0.,12.0,0.,12.0
1979-07-21 03:17:53.230 ,7,0,0.,12.0,0.,12.0,0.,12.0,0.,12.0
1979-07-21 03:18:05.230 ,7,0,0.,12.0,0.,12.0,0.,12.0,0.,12.0
1979-07-21 03:18:17.230 ,7,0,0.,12.0,0.,12.0,0.,12.0,0.,12.0
1979-07-21 03:18:29.230 ,7,0,0.,12.0,0.,12.0,0.,12.0,0.,12.0
1979-07-21 03:18:41.230 ,7,0,0.,12.0,0.,12.0,0.,12.0,0.,12.0
1979-07-21 03:18:53.230 ,7,0,0.,12.0,0.,12.0,0.,12.0,0.,12.0
1979-07-21 03:19:05.230 ,7,0,0.,12.0,0.,12.0,0.,12.0,0.,12.0
1979-07-21 03:19:17.230 ,6,0,0.,12.0,0.,12.0,0.,12.0,0.,12.0
1979-07-21 03:19:29.230 ,6,0,0.,12.0,0.,12.0,0.,12.0,0.,12.0
1979-07-21 03:19:41.230 ,6,0,0.,12.0,0.,12.0,0.,12.0,0.,12.0
1979-07-21 03:19:53.230 ,6,0,0.,12.0,0.,12.0,0.,12.0,0.,12.0
1979-07-21 03:20:05.230 ,5,0,0.,12.0,0.,12.0,0.,12.0,0.,12.0
1979-07-21 03:20:17.230 ,5,0,0.,12.0,0.,12.0,0.,12.0,0.,12.0
1979-07-21 03:20:29.230 ,5,0,0.,12.0,0.,12.0,0.,12.0,0.,12.0
1979-07-21 03:20:41.230 ,5,0,0.,12.0,0.,12.0,0.,12.0,0.,12.0
1979-07-21 03:20:53.230 ,4,0,0.,12.0,0.,12.0,0.,12.0,0.,12.0
1979-07-21 03:21:05.230 ,4,0,0.,12.0,0.,12.0,0.,12.0,0.,12.0
1979-07-21 03:21:17.230 ,4,0,0.,12.0,0.,12.0,0.,12.0,0.,12.0
1979-07-21 03:21:29.230 ,4,0,0.,12.0,0.,12.0,0.,12.0,0.,12.0
1979-07-21 03:21:41.230 ,3,0,0.,12.0,0.,12.0,0.,12.0,0.,12.0
1979-07-21 03:21:53.230 ,3,0,0.,12.0,0.,12.0,0.,12.0,0.,12.0
1979-07-21 03:22:05.230 ,3,0,0.,12.0,0.,12.0,0.,12.0,0.,12.0
1979-07-21 03:22:17.230 ,3,0,0.,12.0,0.,12.0,0.,12.0,0.,12.0
1979-07-21 03:22:29.230 ,2,0,0.,12.0,0.,12.0,0.,12.0,0.,12.0
1979-07-21 03:22:41.230 ,2,0,0.,12.0,0.,12.0,0.,12.0,0.,12.0
1979-07-21 03:22:53.230 ,2,0,0.,12.0,0.,12.0,0.,12.0,0.,12.0
1979-07-21 03:23:05.230 ,2,0,0.,12.0,0.,12.0,0.,12.0,0.,12.0
1979-07-21 03:23:17.230 ,1,0,0.,12.0,0.,12.0,0.,12.0,0.,12.0
1979-07-21 03:23:29.230 ,1,0,0.,12.0,0.,12.0,0.,12.0,0.,12.0
1979-07-21 03:23:41.230 ,1,0,0.,12.0,0.,12.0,0.,12.0,0.,12.0
1979-07-21 03:23:53.230 ,1,0,0.,12.0,0.,12.0,0.,12.0,0.,12.0
1979-07-21 03:24:05.230 ,0,0,0.,12.0,0.,12.0,0.,12.0,0.,12.0
1979-07-21 03:24:17.230 ,0,0,0.,12.0,0.,12.0,0.,12.0,0.,12.0
1979-07-21 03:24:29.230 ,0,0,0.,12.0,0.,12.0,0.,12.0,0.,12.0
1979-07-21 03:24:41.230 ,0,0,0.,12.0,0.,12.0,0.,12.0,0.,12.0
1979-07-21 03:24:53.230 ,0,0,0.,12.0,0.,12.0,0.,12.0,0.,12.0
1979-07-21 03:25:05.230 ,0,0,0.,12.0,0.,12.0,0.,12.0,0.,12.0
1979-07-21 03:25:17.230 ,0,0,0.,12.0,0.,12.0,0.,12.0,0.,12.0
1979-07-21 03:25:29.230 ,0,0,0.,12.0,0.,12.0,0.,12.0,0.,12.0
1979-07-21 03:25:41.230 ,1,0,0.,12.0,0.,12.0,0.,12.0,0.,12.0
1979-07-21 03:25:53.230 ,1,0,0.,12.0,0.,12.0,0.,12.0,0.,12.0
1979-07-21 03:26:05.230 ,1,0,1.,12.0,0.,12.0,0.,12.0,0.,12.0
1979-07-21 03:26:17.230 ,1,0,0.,12.0,0.,12.0,0.,12.0,0.,12.0
1979-07-21 03:26:29.230 ,2,0,0.,12.0,0.,12.0,0.,12.0,0.,12.0
1979-07-21 03:26:41.230 ,2,0,0.,12.0,0.,12.0,0.,12.0,0.,12.0
1979-07-21 03:26:53.230 ,2,0,0.,12.0,0.,12.0,0.,12.0,0.,12.0
1979-07-21 03:27:05.230 ,2,0,0.,12.0,0.,12.0,0.,12.0,0.,12.0
1979-07-21 03:27:17.230 ,3,0,0.,12.0,0.,12.0,0.,12.0,0.,12.0
1979-07-21 03:27:29.230 ,3,0,0.,12.0,0.,12.0,0.,12.0,0.,12.0
1979-07-21 03:27:41.230 ,3,0,0.,12.0,0.,12.0,0.,12.0,0.,12.0
1979-07-21 03:27:53.230 ,3,0,0.,12.0,0.,12.0,0.,12.0,0.,12.0
1979-07-21 03:28:05.230 ,4,0,0.,12.0,0.,12.0,0.,12.0,0.,12.0
1979-07-21 03:28:17.230 ,4,0,0.,12.0,0.,12.0,0.,12.0,0.,12.0
1979-07-21 03:28:29.230 ,4,0,0.,12.0,0.,12.0,0.,12.0,0.,12.0
1979-07-21 03:28:41.230 ,4,0,0.,12.0,0.,12.0,0.,12.0,0.,12.0
1979-07-21 03:28:53.230 ,5,0,0.,12.0,0.,12.0,0.,12.0,0.,12.0
1979-07-21 03:29:05.230 ,5,0,0.,12.0,0.,12.0,0.,12.0,0.,12.0
1979-07-21 03:29:17.230 ,5,0,0.,12.0,0.,12.0,0.,12.0,0.,12.0
1979-07-21 03:29:29.230 ,5,0,0.,12.0,0.,12.0,0.,12.0,0.,12.0
1979-07-21 03:29:41.230 ,6,0,0.,12.0,0.,12.0,0.,12.0,0.,12.0
1979-07-21 03:29:53.230 ,6,0,0.,12.0,0.,12.0,0.,12.0,0.,12.0
1979-07-21 03:30:05.230 ,6,0,0.,12.0,0.,12.0,0.,12.0,0.,12.0
1979-07-21 03:30:17.230 ,6,0,0.,12.0,0.,12.0,0.,12.0,0.,12.0
1979-07-21 03:30:29.230 ,7,0,0.,12.0,0.,12.0,0.,12.0,0.,12.0
1979-07-21 03:30:41.230 ,7,0,0.,12.0,0.,12.0,0.,12.0,0.,12.0
1979-07-21 03:30:53.230 ,7,0,0.,12.0,0.,12.0,0.,12.0,0.,12.0
1979-07-21 03:31:05.230 ,7,0,0.,12.0,0.,12.0,0.,12.0,0.,12.0
1979-07-21 03:31:17.230 ,3,1,0.,12.0,0.,12.0,0.,12.0,0.,12.0
1979-07-21 03:31:29.230 ,3,1,0.,12.0,0.,12.0,0.,12.0,0.,12.0
1979-07-21 03:31:41.230 ,0,1,0.,12.0,0.,12.0,0.,12.0,0.,12.0
1979-07-21 03:31:53.230 ,0,1,0.,12.0,0.,12.0,0.,12.0,0.,12.0
1979-07-21 03:32:05.230 ,4,1,0.,12.0,0.,12.0,0.,12.0,0.,12.0
1979-07-21 03:32:17.230 ,4,1,0.,12.0,0.,12.0,0.,12.0,0.,12.0
1979-07-21 03:32:29.230 ,7,1,0.,12.0,0.,12.0,0.,12.0,0.,12.0
1979-07-21 03:32:41.230 ,7,1,0.,12.0,0.,12.0,0.,12.0,0.,12.0
1979-07-21 03:32:53.230 ,3,1,0.,12.0,0.,12.0,0.,12.0,0.,12.0
1979-07-21 03:33:05.230 ,3,1,0.,12.0,0.,12.0,0.,12.0,0.,12.0
1979-07-21 03:33:17.230 ,0,1,0.,12.0,0.,12.0,0.,12.0,0.,12.0
1979-07-21 03:33:29.230 ,0,1,0.,12.0,0.,12.0,0.,12.0,0.,12.0
1979-07-21 03:33:41.230 ,4,1,0.,12.0,0.,12.0,0.,12.0,0.,12.0
1979-07-21 03:33:53.230 ,4,1,0.,12.0,0.,12.0,0.,12.0,0.,12.0
1979-07-21 03:34:05.230 ,7,1,0.,12.0,0.,12.0,0.,12.0,0.,12.0
1979-07-21 03:34:17.230 ,7,1,0.,12.0,0.,12.0,0.,12.0,0.,12.0
1979-07-21 03:34:29.230 ,3,1,0.,12.0,0.,12.0,0.,12.0,0.,12.0
1979-07-21 03:34:41.230 ,3,1,0.,12.0,0.,12.0,0.,12.0,0.,12.0
1979-07-21 03:34:53.230 ,0,1,0.,12.0,0.,12.0,0.,12.0,0.,12.0
1979-07-21 03:35:05.230 ,0,1,0.,12.0,0.,12.0,0.,12.0,0.,12.0
1979-07-21 03:35:17.230 ,4,1,0.,12.0,0.,12.0,0.,12.0,0.,12.0
1979-07-21 03:35:29.230 ,4,1,0.,12.0,0.,12.0,0.,12.0,0.,12.0
1979-07-21 03:35:41.230 ,7,1,0.,12.0,0.,12.0,0.,12.0,0.,12.0
1979-07-21 03:35:53.230 ,7,1,0.,12.0,0.,12.0,0.,12.0,0.,12.0
1979-07-21 03:36:05.230 ,3,1,0.,12.0,0.,12.0,0.,12.0,0.,12.0
1979-07-21 03:36:17.230 ,3,1,0.,12.0,0.,12.0,0.,12.0,0.,12.0
1979-07-21 03:36:29.230 ,0,1,0.,12.0,0.,12.0,0.,12.0,0.,12.0
1979-07-21 03:36:41.230 ,0,1,0.,12.0,0.,12.0,0.,12.0,0.,12.0
1979-07-21 03:36:53.230 ,4,1,0.,12.0,0.,12.0,0.,12.0,0.,12.0
1979-07-21 03:37:05.230 ,4,1,0.,12.0,0.,12.0,0.,12.0,0.,12.0
1979-07-21 03:37:17.230 ,7,1,0.,12.0,0.,12.0,0.,12.0,0.,12.0
1979-07-21 03:37:29.230 ,7,1,0.,12.0,0.,12.0,0.,12.0,0.,12.0
1979-07-21 03:37:41.230 ,3,1,0.,12.0,0.,12.0,0.,12.0,0.,12.0
1979-07-21 03:37:53.230 ,3,1,0.,12.0,0.,12.0,0.,12.0,0.,12.0
1979-07-21 03:38:05.230 ,0,1,0.,12.0,0.,12.0,0.,12.0,0.,12.0
1979-07-21 03:38:17.230 ,0,1,0.,12.0,0.,12.0,0.,12.0,0.,12.0
1979-07-21 03:38:29.230 ,4,1,0.,12.0,0.,12.0,0.,12.0,0.,12.0
1979-07-21 03:38:41.230 ,4,1,0.,12.0,0.,12.0,0.,12.0,0.,12.0
1979-07-21 03:38:53.230 ,7,1,0.,12.0,0.,12.0,0.,12.0,0.,12.0
1979-07-21 03:39:05.230 ,7,1,0.,12.0,0.,12.0,0.,12.0,0.,12.0
1979-07-21 03:39:17.230 ,3,1,0.,12.0,0.,12.0,0.,12.0,0.,12.0
1979-07-21 03:39:29.230 ,3,1,0.,12.0,0.,12.0,0.,12.0,0.,12.0
1979-07-21 03:39:41.230 ,0,1,0.,12.0,0.,12.0,0.,12.0,0.,12.0
1979-07-21 03:39:53.230 ,0,1,0.,12.0,0.,12.0,0.,12.0,0.,12.0
1979-07-21 03:40:05.230 ,4,1,0.,12.0,0.,12.0,0.,12.0,0.,12.0
1979-07-21 03:40:17.230 ,4,1,0.,12.0,0.,12.0,0.,12.0,0.,12.0
1979-07-21 03:40:29.230 ,7,1,0.,12.0,0.,12.0,0.,12.0,0.,12.0
1979-07-21 03:40:41.230 ,7,1,0.,12.0,0.,12.0,0.,12.0,0.,12.0
1979-07-21 03:40:53.230 ,3,1,0.,12.0,0.,12.0,0.,12.0,0.,12.0
1979-07-21 03:41:05.230 ,3,1,0.,12.0,0.,12.0,0.,12.0,0.,12.0
1979-07-21 03:41:17.230 ,0,1,0.,12.0,0.,12.0,0.,12.0,0.,12.0
1979-07-21 03:41:29.230 ,0,1,0.,12.0,0.,12.0,0.,12.0,0.,12.0
1979-07-21 03:41:41.230 ,0,0,0.,12.0,0.,12.0,0.,12.0,0.,12.0
1979-07-21 03:41:53.230 ,0,0,0.,12.0,0.,12.0,0.,12.0,0.,12.0
1979-07-21 03:42:05.230 ,0,0,0.,12.0,0.,12.0,0.,12.0,0.,12.0
1979-07-21 03:42:17.230 ,0,0,0.,12.0,0.,12.0,0.,12.0,0.,12.0
1979-07-21 03:42:29.230 ,0,0,0.,12.0,0.,12.0,0.,12.0,0.,12.0
1979-07-21 03:42:41.230 ,0,0,0.,12.0,0.,12.0,0.,12.0,0.,12.0
1979-07-21 03:42:53.230 ,0,0,0.,12.0,0.,12.0,0.,12.0,0.,12.0
1979-07-21 03:43:05.230 ,0,0,0.,12.0,0.,12.0,0.,12.0,0.,12.0
1979-07-21 03:43:17.230 ,4,0,0.,12.0,0.,12.0,0.,12.0,0.,12.0
1979-07-21 03:43:29.230 ,4,0,0.,12.0,0.,12.0,0.,12.0,0.,12.0
1979-07-21 03:43:41.230 ,4,0,0.,12.0,0.,12.0,0.,12.0,0.,12.0
1979-07-21 03:43:53.230 ,4,0,0.,12.0,0.,12.0,0.,12.0,0.,12.0
1979-07-21 03:44:05.230 ,3,0,0.,12.0,0.,12.0,0.,12.0,0.,12.0
1979-07-21 03:44:17.230 ,3,0,0.,12.0,0.,12.0,0.,12.0,0.,12.0
1979-07-21 03:44:29.230 ,3,0,0.,12.0,0.,12.0,0.,12.0,0.,12.0
1979-07-21 03:44:41.230 ,3,0,1.,12.0,0.,12.0,0.,12.0,0.,12.0
1979-07-21 03:44:53.230 ,2,0,0.,12.0,0.,12.0,0.,12.0,0.,12.0
1979-07-21 03:45:05.230 ,2,0,0.,12.0,0.,12.0,0.,12.0,0.,12.0
1979-07-21 03:45:17.230 ,2,0,0.,12.0,0.,12.0,0.,12.0,0.,12.0
1979-07-21 03:45:29.230 ,2,0,0.,12.0,0.,12.0,0.,12.0,0.,12.0
1979-07-21 03:45:41.230 ,1,0,0.,12.0,0.,12.0,0.,12.0,0.,12.0
1979-07-21 03:45:53.230 ,1,0,0.,12.0,0.,12.0,0.,12.0,0.,12.0
1979-07-21 03:46:05.230 ,1,0,0.,12.0,0.,12.0,0.,12.0,0.,12.0
1979-07-21 03:46:17.230 ,1,0,0.,12.0,0.,12.0,0.,12.0,0.,12.0
1979-07-21 03:46:29.230 ,0,0,0.,12.0,0.,12.0,0.,12.0,0.,12.0
1979-07-21 03:46:41.230 ,0,0,0.,12.0,0.,12.0,0.,12.0,0.,12.0
1979-07-21 03:46:53.230 ,0,0,0.,12.0,0.,12.0,0.,12.0,0.,12.0
1979-07-21 03:47:05.230 ,0,0,0.,12.0,0.,12.0,0.,12.0,0.,12.0
1979-07-21 03:47:17.230 ,0,0,0.,12.0,0.,12.0,0.,12.0,0.,12.0
1979-07-21 03:47:29.230 ,0,0,0.,12.0,0.,12.0,0.,12.0,0.,12.0
1979-07-21 03:47:41.230 ,0,0,0.,12.0,0.,12.0,0.,12.0,0.,12.0
1979-07-21 03:47:53.230 ,0,0,0.,12.0,0.,12.0,0.,12.0,0.,12.0
1979-07-21 03:48:05.230 ,1,0,0.,12.0,0.,12.0,0.,12.0,0.,12.0
1979-07-21 03:48:17.230 ,1,0,0.,12.0,0.,12.0,0.,12.0,0.,12.0
1979-07-21 03:48:29.230 ,1,0,0.,12.0,0.,12.0,0.,12.0,0.,12.0
1979-07-21 03:48:41.230 ,1,0,0.,12.0,0.,12.0,0.,12.0,0.,12.0
1979-07-21 03:48:53.230 ,2,0,0.,12.0,0.,12.0,0.,12.0,0.,12.0
1979-07-21 03:49:05.230 ,2,0,0.,12.0,0.,12.0,0.,12.0,0.,12.0
1979-07-21 03:49:17.230 ,2,0,0.,12.0,0.,12.0,0.,12.0,0.,12.0
1979-07-21 03:49:29.230 ,2,0,0.,12.0,0.,12.0,0.,12.0,0.,12.0
1979-07-21 03:49:41.230 ,3,0,0.,12.0,0.,12.0,0.,12.0,0.,12.0
1979-07-21 03:49:53.230 ,3,0,0.,12.0,0.,12.0,0.,12.0,0.,12.0
1979-07-21 03:50:05.230 ,3,0,0.,12.0,0.,12.0,0.,12.0,0.,12.0
1979-07-21 03:50:17.230 ,3,0,0.,12.0,0.,12.0,0.,12.0,0.,12.0
1979-07-21 03:50:29.230 ,4,0,0.,12.0,0.,12.0,0.,12.0,0.,12.0
1979-07-21 03:50:41.230 ,4,0,0.,12.0,0.,12.0,0.,12.0,0.,12.0
1979-07-21 03:50:53.230 ,4,0,0.,12.0,0.,12.0,0.,12.0,0.,12.0
1979-07-21 03:51:05.230 ,4,0,0.,12.0,0.,12.0,0.,12.0,0.,12.0
1979-07-21 03:51:17.230 ,5,0,0.,12.0,0.,12.0,0.,12.0,0.,12.0
1979-07-21 03:51:29.230 ,5,0,0.,12.0,0.,12.0,0.,12.0,0.,12.0
1979-07-21 03:51:41.230 ,5,0,0.,12.0,0.,12.0,0.,12.0,0.,12.0
1979-07-21 03:51:53.230 ,5,0,0.,12.0,0.,12.0,0.,12.0,0.,12.0
1979-07-21 03:52:05.230 ,6,0,0.,12.0,0.,12.0,0.,12.0,0.,12.0
1979-07-21 03:52:17.230 ,6,0,0.,12.0,0.,12.0,0.,12.0,0.,12.0
1979-07-21 03:52:29.230 ,6,0,0.,12.0,0.,12.0,0.,12.0,0.,12.0
1979-07-21 03:52:41.230 ,6,0,0.,12.0,0.,12.0,0.,12.0,0.,12.0
1979-07-21 03:52:53.230 ,7,0,0.,12.0,0.,12.0,0.,12.0,0.,12.0
1979-07-21 03:53:05.230 ,7,0,0.,12.0,0.,12.0,0.,12.0,0.,12.0
1979-07-21 03:53:17.230 ,7,0,0.,12.0,0.,12.0,0.,12.0,0.,12.0
1979-07-21 03:53:29.230 ,7,0,0.,12.0,0.,12.0,0.,12.0,0.,12.0
1979-07-21 03:53:41.230 ,7,0,0.,12.0,0.,12.0,0.,12.0,0.,12.0
1979-07-21 03:53:53.230 ,7,0,0.,12.0,0.,12.0,0.,12.0,0.,12.0
1979-07-21 03:54:05.230 ,7,0,0.,12.0,0.,12.0,0.,12.0,0.,12.0
1979-07-21 03:54:17.230 ,7,0,0.,12.0,0.,12.0,0.,12.0,0.,12.0
1979-07-21 03:54:29.230 ,6,0,0.,12.0,0.,12.0,0.,12.0,0.,12.0
1979-07-21 03:54:41.230 ,6,0,0.,12.0,0.,12.0,0.,12.0,0.,12.0
1979-07-21 03:54:53.230 ,6,0,0.,12.0,0.,12.0,0.,12.0,0.,12.0
1979-07-21 03:55:05.230 ,6,0,0.,12.0,0.,12.0,0.,12.0,0.,12.0
1979-07-21 03:55:17.230 ,5,0,0.,12.0,0.,12.0,0.,12.0,0.,12.0
1979-07-21 03:55:29.230 ,5,0,1.,12.0,0.,12.0,0.,12.0,0.,12.0
1979-07-21 03:55:41.230 ,5,0,0.,12.0,0.,12.0,0.,12.0,0.,12.0
1979-07-21 03:55:53.230 ,5,0,1.,12.0,0.,12.0,0.,12.0,0.,12.0
1979-07-21 03:56:05.230 ,4,0,0.,12.0,0.,12.0,0.,12.0,0.,12.0
1979-07-21 03:56:17.230 ,4,0,0.,12.0,0.,12.0,0.,12.0,0.,12.0
1979-07-21 03:56:29.230 ,4,0,0.,12.0,0.,12.0,0.,12.0,0.,12.0
1979-07-21 03:56:41.230 ,4,0,0.,12.0,0.,12.0,0.,12.0,0.,12.0
1979-07-21 03:56:53.230 ,3,0,0.,12.0,0.,12.0,0.,12.0,0.,12.0
1979-07-21 03:57:05.230 ,3,0,0.,12.0,0.,12.0,0.,12.0,0.,12.0
1979-07-21 03:57:17.230 ,3,0,0.,12.0,0.,12.0,0.,12.0,0.,12.0
1979-07-21 03:57:29.230 ,3,0,0.,12.0,0.,12.0,0.,12.0,0.,12.0
1979-07-21 03:57:41.230 ,2,0,0.,12.0,0.,12.0,0.,12.0,0.,12.0
1979-07-21 03:57:53.230 ,2,0,0.,12.0,0.,12.0,0.,12.0,0.,12.0
1979-07-21 03:58:05.230 ,2,0,0.,12.0,0.,12.0,0.,12.0,0.,12.0
1979-07-21 03:58:17.230 ,2,0,0.,12.0,0.,12.0,0.,12.0,0.,12.0
1979-07-21 03:58:29.230 ,1,0,0.,12.0,0.,12.0,0.,12.0,0.,12.0
1979-07-21 03:58:41.230 ,1,0,0.,12.0,0.,12.0,0.,12.0,0.,12.0
1979-07-21 03:58:53.230 ,1,0,0.,12.0,0.,12.0,0.,12.0,0.,12.0
1979-07-21 03:59:05.230 ,1,0,0.,12.0,0.,12.0,0.,12.0,0.,12.0
1979-07-21 03:59:17.230 ,0,0,0.,12.0,0.,12.0,0.,12.0,0.,12.0
1979-07-21 03:59:29.230 ,0,0,0.,12.0,0.,12.0,0.,12.0,0.,12.0
1979-07-21 03:59:41.230 ,0,0,1.,12.0,0.,12.0,0.,12.0,0.,12.0
1979-07-21 03:59:53.230 ,0,0,0.,12.0,0.,12.0,0.,12.0,0.,12.0
1979-07-21 04:00:05.230 ,0,0,0.,12.0,0.,12.0,0.,12.0,0.,12.0
1979-07-21 04:00:17.230 ,0,0,0.,12.0,0.,12.0,0.,12.0,0.,12.0
1979-07-21 04:00:29.230 ,0,0,0.,12.0,0.,12.0,0.,12.0,0.,12.0
1979-07-21 04:00:41.230 ,0,0,0.,12.0,0.,12.0,0.,12.0,0.,12.0
1979-07-21 04:00:53.230 ,1,0,0.,12.0,0.,12.0,0.,12.0,0.,12.0
1979-07-21 04:01:05.230 ,1,0,0.,12.0,0.,12.0,0.,12.0,0.,12.0
1979-07-21 04:01:17.230 ,1,0,0.,12.0,0.,12.0,0.,12.0,0.,12.0
1979-07-21 04:01:29.230 ,1,0,0.,12.0,0.,12.0,0.,12.0,0.,12.0
1979-07-21 04:01:41.230 ,2,0,0.,12.0,0.,12.0,0.,12.0,0.,12.0
1979-07-21 04:01:53.230 ,2,0,0.,12.0,0.,12.0,0.,12.0,0.,12.0
1979-07-21 04:02:05.230 ,2,0,0.,12.0,0.,12.0,0.,12.0,0.,12.0
1979-07-21 04:02:17.230 ,2,0,0.,12.0,0.,12.0,0.,12.0,0.,12.0
1979-07-21 04:02:29.230 ,3,0,0.,12.0,0.,12.0,0.,12.0,0.,12.0
1979-07-21 04:02:41.230 ,3,0,0.,12.0,0.,12.0,0.,12.0,0.,12.0
1979-07-21 04:02:53.230 ,3,0,0.,12.0,0.,12.0,0.,12.0,0.,12.0
1979-07-21 04:03:05.230 ,3,0,0.,12.0,0.,12.0,0.,12.0,0.,12.0
1979-07-21 04:03:17.230 ,4,0,0.,12.0,0.,12.0,0.,12.0,0.,12.0
1979-07-21 04:03:29.230 ,4,0,0.,12.0,0.,12.0,0.,12.0,0.,12.0
1979-07-21 04:03:41.230 ,4,0,0.,12.0,0.,12.0,0.,12.0,0.,12.0
1979-07-21 04:03:53.230 ,4,0,0.,12.0,0.,12.0,0.,12.0,0.,12.0
1979-07-21 04:04:05.230 ,5,0,0.,12.0,0.,12.0,0.,12.0,0.,12.0
1979-07-21 04:04:17.230 ,5,0,0.,12.0,0.,12.0,0.,12.0,0.,12.0
1979-07-21 04:04:29.230 ,5,0,0.,12.0,0.,12.0,0.,12.0,0.,12.0
1979-07-21 04:04:41.230 ,5,0,0.,12.0,0.,12.0,0.,12.0,0.,12.0
1979-07-21 04:04:53.230 ,6,0,0.,12.0,0.,12.0,0.,12.0,0.,12.0
1979-07-21 04:05:05.230 ,6,0,0.,12.0,0.,12.0,0.,12.0,0.,12.0
1979-07-21 04:05:17.230 ,6,0,0.,12.0,0.,12.0,0.,12.0,0.,12.0
1979-07-21 04:05:29.230 ,6,0,0.,12.0,0.,12.0,0.,12.0,0.,12.0
1979-07-21 04:05:41.230 ,7,0,0.,12.0,0.,12.0,0.,12.0,0.,12.0
1979-07-21 04:05:53.230 ,7,0,0.,12.0,0.,12.0,0.,12.0,0.,12.0
1979-07-21 04:06:05.230 ,7,0,0.,12.0,0.,12.0,0.,12.0,0.,12.0
1979-07-21 04:06:17.230 ,7,0,0.,12.0,0.,12.0,0.,12.0,0.,12.0
1979-07-21 04:06:29.230 ,7,0,0.,12.0,0.,12.0,0.,12.0,0.,12.0
1979-07-21 04:06:41.230 ,7,0,0.,12.0,0.,12.0,0.,12.0,0.,12.0
1979-07-21 04:06:53.230 ,7,0,0.,12.0,0.,12.0,0.,12.0,0.,12.0
1979-07-21 04:07:05.230 ,7,0,0.,12.0,0.,12.0,0.,12.0,0.,12.0
1979-07-21 04:07:17.230 ,6,0,0.,12.0,0.,12.0,0.,12.0,0.,12.0
1979-07-21 04:07:29.230 ,6,0,0.,12.0,0.,12.0,0.,12.0,0.,12.0
1979-07-21 04:07:41.230 ,6,0,0.,12.0,0.,12.0,0.,12.0,0.,12.0
1979-07-21 04:07:53.230 ,6,0,0.,12.0,0.,12.0,0.,12.0,0.,12.0
1979-07-21 04:08:05.230 ,5,0,0.,12.0,0.,12.0,0.,12.0,0.,12.0
1979-07-21 04:08:17.230 ,5,0,0.,12.0,0.,12.0,0.,12.0,0.,12.0
1979-07-21 04:08:29.230 ,5,0,0.,12.0,0.,12.0,0.,12.0,0.,12.0
1979-07-21 04:08:41.230 ,5,0,0.,12.0,0.,12.0,0.,12.0,0.,12.0
1979-07-21 04:08:53.230 ,4,0,0.,12.0,0.,12.0,0.,12.0,0.,12.0
1979-07-21 04:09:05.230 ,4,0,0.,12.0,0.,12.0,0.,12.0,0.,12.0
1979-07-21 04:09:17.230 ,4,0,0.,12.0,0.,12.0,0.,12.0,0.,12.0
1979-07-21 04:09:29.230 ,4,0,0.,12.0,0.,12.0,0.,12.0,0.,12.0
1979-07-21 04:09:41.230 ,3,0,0.,12.0,0.,12.0,0.,12.0,0.,12.0
1979-07-21 04:09:53.230 ,3,0,0.,12.0,0.,12.0,0.,12.0,0.,12.0
1979-07-21 04:10:05.230 ,3,0,0.,12.0,0.,12.0,0.,12.0,0.,12.0
1979-07-21 04:10:17.230 ,3,0,0.,12.0,0.,12.0,0.,12.0,0.,12.0
1979-07-21 04:10:29.230 ,2,0,0.,12.0,0.,12.0,0.,12.0,0.,12.0
1979-07-21 04:10:41.230 ,2,0,0.,12.0,0.,12.0,0.,12.0,0.,12.0
1979-07-21 04:10:53.230 ,2,0,0.,12.0,0.,12.0,0.,12.0,0.,12.0
1979-07-21 04:11:05.230 ,2,0,0.,12.0,0.,12.0,0.,12.0,0.,12.0
1979-07-21 04:11:17.230 ,1,0,0.,12.0,0.,12.0,0.,12.0,0.,12.0
1979-07-21 04:11:29.230 ,1,0,0.,12.0,0.,12.0,0.,12.0,0.,12.0
1979-07-21 04:11:41.230 ,1,0,0.,12.0,0.,12.0,0.,12.0,0.,12.0
1979-07-21 04:11:53.230 ,1,0,0.,12.0,0.,12.0,0.,12.0,0.,12.0
1979-07-21 04:12:05.230 ,0,0,0.,12.0,0.,12.0,0.,12.0,0.,12.0
1979-07-21 04:12:17.230 ,0,0,0.,12.0,0.,12.0,0.,12.0,0.,12.0
1979-07-21 04:12:29.230 ,0,0,0.,12.0,0.,12.0,0.,12.0,0.,12.0
1979-07-21 04:12:41.230 ,0,0,0.,12.0,0.,12.0,0.,12.0,0.,12.0
1979-07-21 04:12:53.230 ,0,0,0.,12.0,0.,12.0,0.,12.0,0.,12.0
1979-07-21 04:13:05.230 ,0,0,0.,12.0,0.,12.0,0.,12.0,0.,12.0
1979-07-21 04:13:17.230 ,0,0,0.,12.0,0.,12.0,0.,12.0,0.,12.0
1979-07-21 04:13:29.230 ,0,0,0.,12.0,0.,12.0,0.,12.0,0.,12.0
1979-07-21 04:13:41.230 ,1,0,0.,12.0,0.,12.0,0.,12.0,0.,12.0
1979-07-21 04:13:53.230 ,1,0,0.,12.0,0.,12.0,0.,12.0,0.,12.0
1979-07-21 04:14:05.230 ,1,0,0.,12.0,0.,12.0,0.,12.0,0.,12.0
1979-07-21 04:14:17.230 ,1,0,0.,12.0,0.,12.0,0.,12.0,0.,12.0
1979-07-21 04:14:29.230 ,2,0,0.,12.0,0.,12.0,0.,12.0,0.,12.0
1979-07-21 04:14:41.230 ,2,0,0.,12.0,0.,12.0,0.,12.0,0.,12.0
1979-07-21 04:14:53.230 ,2,0,0.,12.0,0.,12.0,0.,12.0,0.,12.0
1979-07-21 04:15:05.230 ,2,0,0.,12.0,0.,12.0,0.,12.0,0.,12.0
1979-07-21 04:15:17.230 ,3,0,0.,12.0,0.,12.0,0.,12.0,0.,12.0
1979-07-21 04:15:29.230 ,3,0,0.,12.0,0.,12.0,0.,12.0,0.,12.0
1979-07-21 04:15:41.230 ,3,0,0.,12.0,0.,12.0,0.,12.0,0.,12.0
1979-07-21 04:15:53.230 ,3,0,0.,12.0,0.,12.0,0.,12.0,0.,12.0
1979-07-21 04:16:05.230 ,4,0,0.,12.0,0.,12.0,0.,12.0,0.,12.0
1979-07-21 04:16:17.230 ,4,0,0.,12.0,0.,12.0,0.,12.0,0.,12.0
1979-07-21 04:16:29.230 ,4,0,0.,12.0,0.,12.0,0.,12.0,0.,12.0
1979-07-21 04:16:41.230 ,4,0,0.,12.0,0.,12.0,0.,12.0,0.,12.0
1979-07-21 04:16:53.220 ,5,0,0.,12.0,0.,12.0,0.,12.0,0.,12.0
1979-07-21 04:17:05.220 ,5,0,0.,12.0,0.,12.0,0.,12.0,0.,12.0
1979-07-21 04:17:17.220 ,5,0,0.,12.0,0.,12.0,0.,12.0,0.,12.0
1979-07-21 04:17:29.220 ,5,0,0.,12.0,0.,12.0,0.,12.0,0.,12.0